Time,TemperatureF,DewpointF,PressureIn,WindDirection,WindDirectionDegrees,WindSpeedMPH,WindSpeedGustMPH,Humidity,HourlyPrecipIn,Conditions,Clouds,dailyrainin,SoftwareType,DateUTC
2013-06-15 00:04:00,50.2,42.2,29.91,NNW,338,0.0,0.0,74,0.00,,---,0.00,VWS V14.01,2013-06-15 07:04:00,
2013-06-15 00:14:00,49.8,42.2,29.91,NNW,338,0.0,0.0,75,0.00,,---,0.00,VWS V14.01,2013-06-15 07:14:00,
2013-06-15 00:19:00,49.6,42.4,29.91,NNW,338,0.0,0.0,76,0.00,,---,0.00,VWS V14.01,2013-06-15 07:19:00,
2013-06-15 00:24:00,49.5,41.9,29.94,NNW,338,0.0,0.0,75,0.00,,---,0.00,VWS V14.01,2013-06-15 07:24:00,
2013-06-15 00:34:00,49.5,41.9,29.94,NNW,338,0.0,0.0,75,0.00,,---,0.00,VWS V14.01,2013-06-15 07:34:00,
2013-06-15 00:39:00,49.3,42.0,29.91,NNW,338,0.0,0.0,76,0.00,,---,0.00,VWS V14.01,2013-06-15 07:39:00,
2013-06-15 00:49:00,49.1,41.9,29.91,NNW,338,0.0,0.0,76,0.00,,---,0.00,VWS V14.01,2013-06-15 07:49:00,
2013-06-15 00:59:00,48.6,41.3,29.91,NNW,338,0.0,0.0,76,0.00,,---,0.00,VWS V14.01,2013-06-15 07:59:00,
2013-06-15 01:04:00,48.4,41.2,29.91,NNW,338,0.0,0.0,76,0.00,,---,0.00,VWS V14.01,2013-06-15 08:04:00,
2013-06-15 01:09:00,48.2,41.3,29.91,NNW,338,0.0,0.0,77,0.00,,---,0.00,VWS V14.01,2013-06-15 08:09:00,
2013-06-15 01:14:00,48.0,41.5,29.91,NNW,338,0.0,0.0,78,0.00,,---,0.00,VWS V14.01,2013-06-15 08:14:00,
2013-06-15 01:19:00,48.0,41.8,29.91,NNW,338,0.0,0.0,79,0.00,,---,0.00,VWS V14.01,2013-06-15 08:19:00,
2013-06-15 01:24:00,47.8,41.3,29.91,NNW,338,0.0,0.0,78,0.00,,---,0.00,VWS V14.01,2013-06-15 08:24:00,
2013-06-15 01:34:00,47.8,41.7,29.91,NNW,338,0.0,0.0,79,0.00,,---,0.00,VWS V14.01,2013-06-15 08:34:00,
2013-06-15 01:39:00,47.8,42.0,29.91,NNW,338,0.0,0.0,80,0.00,,---,0.00,VWS V14.01,2013-06-15 08:39:00,
2013-06-15 01:44:00,47.7,41.8,29.91,NNW,338,0.0,0.0,80,0.00,,---,0.00,VWS V14.01,2013-06-15 08:44:00,
2013-06-15 01:54:00,47.5,41.6,29.91,NNW,338,0.0,0.0,80,0.00,,---,0.00,VWS V14.01,2013-06-15 08:54:00,
2013-06-15 01:59:00,47.5,41.6,29.91,NNW,338,0.0,0.0,80,0.00,,---,0.00,VWS V14.01,2013-06-15 08:59:00,
2013-06-15 02:09:00,47.5,42.0,29.91,NNW,338,0.0,0.0,81,0.00,,---,0.00,VWS V14.01,2013-06-15 09:09:00,
2013-06-15 02:19:00,47.7,42.4,29.91,NNW,338,0.0,0.0,82,0.00,,---,0.00,VWS V14.01,2013-06-15 09:19:00,
2013-06-15 02:24:00,48.2,43.0,29.91,NNW,338,0.0,0.0,82,0.00,,---,0.00,VWS V14.01,2013-06-15 09:24:00,
2013-06-15 02:34:00,48.9,44.0,29.91,North,0,0.0,1.3,83,0.00,,---,0.00,VWS V14.01,2013-06-15 09:34:00,
2013-06-15 02:44:00,49.1,44.8,29.91,North,0,0.0,2.0,85,0.00,,---,0.00,VWS V14.01,2013-06-15 09:44:00,
2013-06-15 02:49:00,49.3,45.0,29.91,NNW,338,0.0,1.1,85,0.00,,---,0.00,VWS V14.01,2013-06-15 09:49:00,
2013-06-15 02:54:00,49.5,44.8,29.91,NNW,338,0.0,0.0,84,0.00,,---,0.00,VWS V14.01,2013-06-15 09:54:00,
2013-06-15 02:59:00,49.8,45.5,29.91,WNW,292,0.0,1.1,85,0.00,,---,0.00,VWS V14.01,2013-06-15 09:59:00,
2013-06-15 03:09:00,49.8,45.2,29.91,NW,315,0.0,0.9,84,0.00,,---,0.00,VWS V14.01,2013-06-15 10:09:00,
2013-06-15 03:19:00,50.2,45.5,29.91,WNW,292,0.0,0.0,84,0.00,,---,0.00,VWS V14.01,2013-06-15 10:19:00,
2013-06-15 03:24:00,50.5,45.9,29.91,NNW,338,0.0,0.0,84,0.00,,---,0.00,VWS V14.01,2013-06-15 10:24:00,
2013-06-15 03:29:00,50.7,46.4,29.91,NNW,338,0.0,0.0,85,0.00,,---,0.00,VWS V14.01,2013-06-15 10:29:00,
2013-06-15 03:39:00,51.3,46.9,29.91,North,0,3.1,3.1,85,0.00,,---,0.00,VWS V14.01,2013-06-15 10:39:00,
2013-06-15 03:44:00,51.4,47.1,29.91,NNW,338,0.0,3.1,85,0.00,,---,0.00,VWS V14.01,2013-06-15 10:44:00,
2013-06-15 03:54:00,51.6,47.3,29.91,NNW,338,0.0,0.9,85,0.00,,---,0.00,VWS V14.01,2013-06-15 10:54:00,
2013-06-15 03:59:00,51.8,47.1,29.91,NNW,338,0.0,0.0,84,0.00,,---,0.00,VWS V14.01,2013-06-15 10:59:00,
2013-06-15 04:04:00,52.0,47.3,29.91,WSW,248,0.9,2.5,84,0.00,,---,0.00,VWS V14.01,2013-06-15 11:04:00,
2013-06-15 04:09:00,52.2,47.8,29.94,West,270,0.0,2.5,85,0.00,,---,0.00,VWS V14.01,2013-06-15 11:09:00,
2013-06-15 04:19:00,52.5,48.2,29.94,WNW,292,0.0,2.7,85,0.00,,---,0.00,VWS V14.01,2013-06-15 11:19:00,
2013-06-15 04:29:00,52.7,48.3,29.91,WSW,248,0.0,2.9,85,0.00,,---,0.00,VWS V14.01,2013-06-15 11:29:00,
2013-06-15 04:34:00,52.7,48.3,29.91,WNW,292,0.0,3.1,85,0.00,,---,0.00,VWS V14.01,2013-06-15 11:34:00,
2013-06-15 04:44:00,52.7,48.0,29.94,SW,225,0.0,2.7,84,0.00,,---,0.00,VWS V14.01,2013-06-15 11:44:00,
2013-06-15 04:54:00,52.7,47.7,29.94,SW,225,0.0,2.7,83,0.00,,---,0.00,VWS V14.01,2013-06-15 11:54:00,
2013-06-15 04:59:00,52.5,47.5,29.94,West,270,0.0,1.6,83,0.00,,---,0.00,VWS V14.01,2013-06-15 11:59:00,
2013-06-15 05:09:00,52.5,47.5,29.94,SSW,202,0.0,2.5,83,0.00,,---,0.00,VWS V14.01,2013-06-15 12:09:00,
2013-06-15 05:14:00,52.3,47.3,29.94,WNW,292,2.0,2.7,83,0.00,,---,0.00,VWS V14.01,2013-06-15 12:14:00,
2013-06-15 05:19:00,52.2,47.2,29.94,WSW,248,1.1,3.8,83,0.00,,---,0.00,VWS V14.01,2013-06-15 12:19:00,
2013-06-15 05:29:00,52.0,46.7,29.94,WSW,248,1.1,3.4,82,0.00,,---,0.00,VWS V14.01,2013-06-15 12:29:00,
2013-06-15 05:39:00,52.0,46.7,29.94,West,270,0.0,2.7,82,0.00,,---,0.00,VWS V14.01,2013-06-15 12:39:00,
2013-06-15 05:44:00,52.0,46.7,29.94,WSW,248,2.5,2.5,82,0.00,,---,0.00,VWS V14.01,2013-06-15 12:44:00,
2013-06-15 05:54:00,52.0,47.0,29.94,WSW,248,0.0,1.6,83,0.00,,---,0.00,VWS V14.01,2013-06-15 12:54:00,
2013-06-15 06:04:00,52.2,47.2,29.94,SW,225,2.9,3.1,83,0.00,,---,0.00,VWS V14.01,2013-06-15 13:04:00,
2013-06-15 06:14:00,52.2,47.2,29.94,South,180,2.5,2.9,83,0.00,,---,0.00,VWS V14.01,2013-06-15 13:14:00,
2013-06-15 06:19:00,52.2,47.2,29.94,SSW,202,2.0,4.3,83,0.00,,---,0.00,VWS V14.01,2013-06-15 13:19:00,
2013-06-15 06:29:00,52.7,47.7,29.94,WNW,292,0.9,1.6,83,0.00,,---,0.00,VWS V14.01,2013-06-15 13:29:00,
2013-06-15 06:39:00,52.9,47.9,29.94,WSW,248,0.9,2.7,83,0.00,,---,0.00,VWS V14.01,2013-06-15 13:39:00,
2013-06-15 06:44:00,53.1,48.0,29.94,West,270,0.0,4.0,83,0.00,,---,0.00,VWS V14.01,2013-06-15 13:44:00,
2013-06-15 06:54:00,53.2,47.9,29.94,WSW,248,2.0,5.4,82,0.00,,---,0.00,VWS V14.01,2013-06-15 13:54:00,
2013-06-15 07:04:00,53.8,48.1,29.94,WNW,292,0.0,2.0,81,0.00,,---,0.00,VWS V14.01,2013-06-15 14:04:00,
2013-06-15 07:14:00,54.0,47.9,29.94,WSW,248,1.1,4.7,80,0.00,,---,0.00,VWS V14.01,2013-06-15 14:14:00,
2013-06-15 07:19:00,54.3,48.3,29.94,WSW,248,1.6,3.8,80,0.00,,---,0.00,VWS V14.01,2013-06-15 14:19:00,
2013-06-15 07:24:00,54.7,48.6,29.97,SSE,158,0.9,2.2,80,0.00,,---,0.00,VWS V14.01,2013-06-15 14:24:00,
2013-06-15 07:29:00,54.7,48.3,29.97,SW,225,0.9,6.3,79,0.00,,---,0.00,VWS V14.01,2013-06-15 14:29:00,
2013-06-15 07:39:00,54.7,47.6,29.97,WSW,248,2.0,5.8,77,0.00,,---,0.00,VWS V14.01,2013-06-15 14:39:00,
2013-06-15 07:49:00,55.9,48.5,29.97,WSW,248,3.1,3.8,76,0.00,,---,0.00,VWS V14.01,2013-06-15 14:49:00,
2013-06-15 07:59:00,56.7,48.1,29.97,SSE,158,0.0,4.3,73,0.00,,---,0.00,VWS V14.01,2013-06-15 14:59:00,
2013-06-15 08:04:00,57.0,48.1,29.97,WSW,248,1.3,3.8,72,0.00,,---,0.00,VWS V14.01,2013-06-15 15:04:00,
2013-06-15 08:14:00,57.0,47.3,29.97,WNW,292,2.5,6.0,70,0.00,,---,0.00,VWS V14.01,2013-06-15 15:14:00,
2013-06-15 08:24:00,57.4,47.3,30.00,West,270,2.7,4.3,69,0.00,,---,0.00,VWS V14.01,2013-06-15 15:24:00,
2013-06-15 08:34:00,57.6,47.5,30.00,NW,315,2.2,4.7,69,0.00,,---,0.00,VWS V14.01,2013-06-15 15:34:00,
2013-06-15 08:39:00,57.6,47.5,30.00,WSW,248,2.5,3.8,69,0.00,,---,0.00,VWS V14.01,2013-06-15 15:39:00,
2013-06-15 08:49:00,58.5,48.0,30.00,SSW,202,2.5,3.6,68,0.00,,---,0.00,VWS V14.01,2013-06-15 15:49:00,
2013-06-15 08:54:00,58.5,47.6,30.00,WSW,248,1.6,5.4,67,0.00,,---,0.00,VWS V14.01,2013-06-15 15:54:00,
2013-06-15 09:04:00,60.4,48.6,30.00,West,270,0.0,5.8,65,0.00,,---,0.00,VWS V14.01,2013-06-15 16:04:00,
2013-06-15 09:09:00,60.8,46.8,30.00,SW,225,2.5,4.7,60,0.00,,---,0.00,VWS V14.01,2013-06-15 16:09:00,
2013-06-15 09:14:00,60.6,47.1,30.00,WSW,248,0.0,4.3,61,0.00,,---,0.00,VWS V14.01,2013-06-15 16:14:00,
2013-06-15 09:24:00,62.4,48.4,30.00,WSW,248,1.1,4.0,60,0.00,,---,0.00,VWS V14.01,2013-06-15 16:24:00,
2013-06-15 09:34:00,61.9,45.1,30.00,WSW,248,2.0,5.6,54,0.00,,---,0.00,VWS V14.01,2013-06-15 16:34:00,
2013-06-15 09:39:00,61.3,45.0,29.97,WSW,248,1.6,7.6,55,0.00,,---,0.00,VWS V14.01,2013-06-15 16:39:00,
2013-06-15 09:44:00,62.6,45.7,29.97,WSW,248,2.0,5.6,54,0.00,,---,0.00,VWS V14.01,2013-06-15 16:44:00,
2013-06-15 09:54:00,64.0,46.6,30.00,SW,225,2.7,3.6,53,0.00,,---,0.00,VWS V14.01,2013-06-15 16:54:00,
2013-06-15 09:59:00,65.3,47.2,30.00,WSW,248,1.6,4.3,52,0.00,,---,0.00,VWS V14.01,2013-06-15 16:59:00,
2013-06-15 10:04:00,66.4,46.1,30.00,WSW,248,2.9,4.7,48,0.00,,---,0.00,VWS V14.01,2013-06-15 17:04:00,
2013-06-15 10:09:00,66.7,45.9,29.97,WSW,248,2.7,4.9,47,0.00,,---,0.00,VWS V14.01,2013-06-15 17:09:00,
2013-06-15 10:19:00,67.6,45.6,29.97,NNE,22,3.6,3.8,45,0.00,,---,0.00,VWS V14.01,2013-06-15 17:19:00,
2013-06-15 10:24:00,67.8,45.1,30.00,SW,225,5.8,5.8,44,0.00,,---,0.00,VWS V14.01,2013-06-15 17:24:00,
2013-06-15 10:34:00,68.2,44.9,30.00,NNW,338,2.0,5.6,43,0.00,,---,0.00,VWS V14.01,2013-06-15 17:34:00,
2013-06-15 10:44:00,68.4,44.4,30.00,WSW,248,3.4,5.8,42,0.00,,---,0.00,VWS V14.01,2013-06-15 17:44:00,
2013-06-15 10:49:00,69.3,44.6,30.00,SW,225,3.8,4.9,41,0.00,,---,0.00,VWS V14.01,2013-06-15 17:49:00,
2013-06-15 10:59:00,70.5,45.1,30.00,SSW,202,2.5,4.7,40,0.00,,---,0.00,VWS V14.01,2013-06-15 17:59:00,
2013-06-15 11:09:00,70.7,44.5,30.00,WSW,248,2.0,4.5,39,0.00,,---,0.00,VWS V14.01,2013-06-15 18:09:00,
2013-06-15 11:14:00,71.8,44.8,30.00,WNW,292,1.6,4.3,38,0.00,,---,0.00,VWS V14.01,2013-06-15 18:14:00,
2013-06-15 11:19:00,72.1,44.5,30.00,SW,225,2.2,7.2,37,0.00,,---,0.00,VWS V14.01,2013-06-15 18:19:00,
2013-06-15 11:29:00,72.1,43.7,30.00,SSW,202,4.0,6.3,36,0.00,,---,0.00,VWS V14.01,2013-06-15 18:29:00,
2013-06-15 11:34:00,72.3,43.9,30.00,South,180,6.3,6.3,36,0.00,,---,0.00,VWS V14.01,2013-06-15 18:34:00,
2013-06-15 11:44:00,72.1,43.7,30.00,WNW,292,1.6,6.5,36,0.00,,---,0.00,VWS V14.01,2013-06-15 18:44:00,
2013-06-15 11:54:00,72.9,44.4,30.03,WSW,248,3.1,5.6,36,0.00,,---,0.00,VWS V14.01,2013-06-15 18:54:00,
2013-06-15 12:04:00,74.5,45.1,30.03,WSW,248,2.5,3.8,35,0.00,,---,0.00,VWS V14.01,2013-06-15 19:04:00,
2013-06-15 12:09:00,74.5,44.3,30.00,SW,225,3.6,4.7,34,0.00,,---,0.00,VWS V14.01,2013-06-15 19:09:00,
2013-06-15 12:19:00,75.7,44.6,30.00,NNW,338,2.5,4.3,33,0.00,,---,0.00,VWS V14.01,2013-06-15 19:19:00,
2013-06-15 12:29:00,73.0,42.3,30.00,WSW,248,3.4,6.3,33,0.00,,---,0.00,VWS V14.01,2013-06-15 19:29:00,
2013-06-15 12:39:00,75.2,43.3,30.00,SSW,202,1.3,4.7,32,0.00,,---,0.00,VWS V14.01,2013-06-15 19:39:00,
2013-06-15 12:44:00,74.7,43.7,30.00,SSW,202,3.4,4.7,33,0.00,,---,0.00,VWS V14.01,2013-06-15 19:44:00,
2013-06-15 12:49:00,73.4,42.6,30.00,SSW,202,6.0,8.5,33,0.00,,---,0.00,VWS V14.01,2013-06-15 19:49:00,
2013-06-15 12:54:00,73.8,43.7,30.03,NW,315,2.9,6.0,34,0.00,,---,0.00,VWS V14.01,2013-06-15 19:54:00,
2013-06-15 12:59:00,75.4,44.3,30.03,SSW,202,4.0,4.3,33,0.00,,---,0.00,VWS V14.01,2013-06-15 19:59:00,
2013-06-15 13:04:00,75.0,43.2,30.03,SSW,202,2.5,10.7,32,0.00,,---,0.00,VWS V14.01,2013-06-15 20:04:00,
2013-06-15 13:14:00,73.6,42.7,30.03,SSW,202,3.4,7.8,33,0.00,,---,0.00,VWS V14.01,2013-06-15 20:14:00,
2013-06-15 13:19:00,74.3,44.1,30.03,NW,315,1.6,6.3,34,0.00,,---,0.00,VWS V14.01,2013-06-15 20:19:00,
2013-06-15 13:29:00,74.7,43.7,30.03,West,270,1.6,7.6,33,0.00,,---,0.00,VWS V14.01,2013-06-15 20:29:00,
2013-06-15 13:39:00,73.8,42.9,30.03,SSW,202,6.5,7.8,33,0.00,,---,0.00,VWS V14.01,2013-06-15 20:39:00,
2013-06-15 13:44:00,75.7,43.8,30.03,North,0,1.1,6.5,32,0.00,,---,0.00,VWS V14.01,2013-06-15 20:44:00,
2013-06-15 13:54:00,75.9,44.0,30.03,West,270,3.4,5.8,32,0.00,,---,0.00,VWS V14.01,2013-06-15 20:54:00,
2013-06-15 14:04:00,76.1,44.1,30.03,NW,315,4.0,5.6,32,0.00,,---,0.00,VWS V14.01,2013-06-15 21:04:00,
2013-06-15 14:09:00,75.7,43.8,30.03,WSW,248,4.3,6.0,32,0.00,,---,0.00,VWS V14.01,2013-06-15 21:09:00,
2013-06-15 14:19:00,76.6,43.8,30.03,SSE,158,2.5,5.8,31,0.00,,---,0.00,VWS V14.01,2013-06-15 21:19:00,
2013-06-15 14:29:00,76.1,43.3,30.03,SSW,202,4.3,5.6,31,0.00,,---,0.00,VWS V14.01,2013-06-15 21:29:00,
2013-06-15 14:39:00,75.0,43.2,30.03,WSW,248,3.8,7.2,32,0.00,,---,0.00,VWS V14.01,2013-06-15 21:39:00,
2013-06-15 14:44:00,74.5,42.7,30.03,NE,45,5.6,7.2,32,0.00,,---,0.00,VWS V14.01,2013-06-15 21:44:00,
2013-06-15 14:49:00,74.5,42.7,30.03,WSW,248,5.8,5.8,32,0.00,,---,0.00,VWS V14.01,2013-06-15 21:49:00,
2013-06-15 14:59:00,75.6,43.7,30.03,SW,225,1.3,5.8,32,0.00,,---,0.00,VWS V14.01,2013-06-15 21:59:00,
2013-06-15 15:04:00,75.4,42.7,30.03,West,270,3.1,5.8,31,0.00,,---,0.00,VWS V14.01,2013-06-15 22:04:00,
2013-06-15 15:14:00,75.4,43.5,30.03,WSW,248,2.5,6.3,32,0.00,,---,0.00,VWS V14.01,2013-06-15 22:14:00,
2013-06-15 15:24:00,75.6,43.7,30.03,SW,225,2.7,9.0,32,0.00,,---,0.00,VWS V14.01,2013-06-15 22:24:00,
2013-06-15 15:34:00,73.8,42.1,30.03,SSW,202,2.9,6.5,32,0.00,,---,0.00,VWS V14.01,2013-06-15 22:34:00,
2013-06-15 15:39:00,74.5,43.5,30.03,SSW,202,2.2,6.0,33,0.00,,---,0.00,VWS V14.01,2013-06-15 22:39:00,
2013-06-15 15:49:00,75.0,43.2,30.03,SSE,158,3.6,5.4,32,0.00,,---,0.00,VWS V14.01,2013-06-15 22:49:00,
2013-06-15 15:54:00,73.2,42.4,30.03,WSW,248,4.7,9.8,33,0.00,,---,0.00,VWS V14.01,2013-06-15 22:54:00,
2013-06-15 15:59:00,73.0,42.3,30.03,WSW,248,2.9,7.8,33,0.00,,---,0.00,VWS V14.01,2013-06-15 22:59:00,
2013-06-15 16:04:00,75.0,43.2,30.03,West,270,3.8,5.4,32,0.00,,---,0.00,VWS V14.01,2013-06-15 23:04:00,
2013-06-15 16:09:00,75.0,43.2,30.03,NNE,22,6.3,6.5,32,0.00,,---,0.00,VWS V14.01,2013-06-15 23:09:00,
2013-06-15 16:14:00,73.9,43.0,30.03,SSW,202,4.7,6.3,33,0.00,,---,0.00,VWS V14.01,2013-06-15 23:14:00,
2013-06-15 16:19:00,73.2,42.4,30.03,WSW,248,2.9,5.6,33,0.00,,---,0.00,VWS V14.01,2013-06-15 23:19:00,
2013-06-15 16:24:00,72.1,41.5,30.03,SW,225,2.2,6.7,33,0.00,,---,0.00,VWS V14.01,2013-06-15 23:24:00,
2013-06-15 16:29:00,72.3,42.4,30.03,WSW,248,3.6,7.2,34,0.00,,---,0.00,VWS V14.01,2013-06-15 23:29:00,
2013-06-15 16:34:00,72.9,42.1,30.03,SSW,202,5.6,6.9,33,0.00,,---,0.00,VWS V14.01,2013-06-15 23:34:00,
2013-06-15 16:39:00,73.6,42.7,30.03,NW,315,0.9,5.8,33,0.00,,---,0.00,VWS V14.01,2013-06-15 23:39:00,
2013-06-15 16:44:00,72.9,42.1,30.03,SW,225,2.7,6.3,33,0.00,,---,0.00,VWS V14.01,2013-06-15 23:44:00,
2013-06-15 16:54:00,72.1,42.2,30.03,NNW,338,0.0,6.7,34,0.00,,---,0.00,VWS V14.01,2013-06-15 23:54:00,
2013-06-15 16:59:00,73.0,42.3,30.03,NNW,338,2.2,5.6,33,0.00,,---,0.00,VWS V14.01,2013-06-15 23:59:00,
2013-06-15 17:04:00,72.3,41.6,30.03,WSW,248,3.8,7.6,33,0.00,,---,0.00,VWS V14.01,2013-06-16 00:04:00,
2013-06-15 17:14:00,70.3,42.2,30.03,NE,45,4.0,6.0,36,0.00,,---,0.00,VWS V14.01,2013-06-16 00:14:00,
2013-06-15 17:19:00,70.3,42.2,30.03,SSW,202,5.4,6.3,36,0.00,,---,0.00,VWS V14.01,2013-06-16 00:19:00,
2013-06-15 17:24:00,69.6,41.5,30.03,NNW,338,0.9,8.5,36,0.00,,---,0.00,VWS V14.01,2013-06-16 00:24:00,
2013-06-15 17:29:00,68.5,42.0,30.03,WNW,292,1.6,7.4,38,0.00,,---,0.00,VWS V14.01,2013-06-16 00:29:00,
2013-06-15 17:34:00,68.0,42.1,30.03,SW,225,3.6,3.8,39,0.00,,---,0.00,VWS V14.01,2013-06-16 00:34:00,
2013-06-15 17:39:00,67.5,42.3,30.03,North,0,3.1,5.4,40,0.00,,---,0.00,VWS V14.01,2013-06-16 00:39:00,
2013-06-15 17:44:00,67.1,42.6,30.03,SSW,202,2.5,4.9,41,0.00,,---,0.00,VWS V14.01,2013-06-16 00:44:00,
2013-06-15 17:54:00,66.4,43.2,30.03,NW,315,2.2,7.8,43,0.00,,---,0.00,VWS V14.01,2013-06-16 00:54:00,
2013-06-15 17:59:00,64.6,42.2,30.03,SSW,202,1.3,5.8,44,0.00,,---,0.00,VWS V14.01,2013-06-16 00:59:00,
2013-06-15 18:04:00,63.3,42.2,30.03,SW,225,3.1,5.6,46,0.00,,---,0.00,VWS V14.01,2013-06-16 01:04:00,
2013-06-15 18:09:00,63.0,42.4,30.03,SSW,202,3.8,4.3,47,0.00,,---,0.00,VWS V14.01,2013-06-16 01:09:00,
2013-06-15 18:14:00,62.1,42.2,30.03,NNE,22,1.3,7.4,48,0.00,,---,0.00,VWS V14.01,2013-06-16 01:14:00,
2013-06-15 18:24:00,59.0,42.9,30.06,NW,315,1.3,7.8,55,0.00,,---,0.00,VWS V14.01,2013-06-16 01:24:00,
2013-06-15 18:29:00,58.8,44.1,30.06,WSW,248,1.3,5.4,58,0.00,,---,0.00,VWS V14.01,2013-06-16 01:29:00,
2013-06-15 18:34:00,58.3,44.5,30.06,West,270,4.0,6.0,60,0.00,,---,0.00,VWS V14.01,2013-06-16 01:34:00,
2013-06-15 18:39:00,58.1,44.3,30.03,NNW,338,1.6,4.0,60,0.00,,---,0.00,VWS V14.01,2013-06-16 01:39:00,
2013-06-15 18:44:00,57.9,44.6,30.03,WSW,248,3.1,3.8,61,0.00,,---,0.00,VWS V14.01,2013-06-16 01:44:00,
2013-06-15 18:49:00,57.4,44.9,30.03,SW,225,1.1,5.4,63,0.00,,---,0.00,VWS V14.01,2013-06-16 01:49:00,
2013-06-15 18:59:00,57.4,45.3,30.06,South,180,2.0,5.4,64,0.00,,---,0.00,VWS V14.01,2013-06-16 01:59:00,
2013-06-15 19:04:00,57.0,45.8,30.06,WSW,248,3.8,4.0,66,0.00,,---,0.00,VWS V14.01,2013-06-16 02:04:00,
2013-06-15 19:09:00,57.2,45.6,30.06,WSW,248,1.1,4.9,65,0.00,,---,0.00,VWS V14.01,2013-06-16 02:09:00,
2013-06-15 19:14:00,56.8,46.0,30.06,SSE,158,3.8,4.9,67,0.00,,---,0.00,VWS V14.01,2013-06-16 02:14:00,
2013-06-15 19:19:00,56.5,45.7,30.06,WSW,248,1.1,4.3,67,0.00,,---,0.00,VWS V14.01,2013-06-16 02:19:00,
2013-06-15 19:24:00,56.7,45.4,30.06,WNW,292,1.3,2.7,66,0.00,,---,0.00,VWS V14.01,2013-06-16 02:24:00,
2013-06-15 19:34:00,56.1,45.3,30.06,NW,315,0.9,5.4,67,0.00,,---,0.00,VWS V14.01,2013-06-16 02:34:00,
2013-06-15 19:39:00,56.1,45.7,30.06,WNW,292,2.0,3.1,68,0.00,,---,0.00,VWS V14.01,2013-06-16 02:39:00,
2013-06-15 19:44:00,55.8,45.4,30.06,SW,225,1.6,4.9,68,0.00,,---,0.00,VWS V14.01,2013-06-16 02:44:00,
2013-06-15 19:49:00,55.8,45.4,30.06,North,0,2.0,3.8,68,0.00,,---,0.00,VWS V14.01,2013-06-16 02:49:00,
2013-06-15 19:54:00,55.6,45.6,30.06,WSW,248,2.0,2.7,69,0.00,,---,0.00,VWS V14.01,2013-06-16 02:54:00,
2013-06-15 19:59:00,55.6,45.6,30.06,WSW,248,1.3,3.6,69,0.00,,---,0.00,VWS V14.01,2013-06-16 02:59:00,
2013-06-15 20:09:00,55.0,45.8,30.06,WSW,248,2.0,4.0,71,0.00,,---,0.00,VWS V14.01,2013-06-16 03:09:00,
2013-06-15 20:14:00,54.9,45.7,30.06,WSW,248,1.6,2.9,71,0.00,,---,0.00,VWS V14.01,2013-06-16 03:14:00,
2013-06-15 20:24:00,54.7,45.8,30.09,WSW,248,4.3,4.3,72,0.00,,---,0.00,VWS V14.01,2013-06-16 03:24:00,
2013-06-15 20:29:00,54.5,46.0,30.09,SW,225,1.1,4.3,73,0.00,,---,0.00,VWS V14.01,2013-06-16 03:29:00,
2013-06-15 20:39:00,54.3,45.9,30.06,WSW,248,2.2,4.3,73,0.00,,---,0.00,VWS V14.01,2013-06-16 03:39:00,
2013-06-15 20:44:00,54.1,45.7,30.06,SW,225,1.3,3.4,73,0.00,,---,0.00,VWS V14.01,2013-06-16 03:44:00,
2013-06-15 20:54:00,54.0,45.9,30.06,NW,315,0.0,4.0,74,0.00,,---,0.00,VWS V14.01,2013-06-16 03:54:00,
2013-06-15 20:59:00,54.1,45.7,30.06,NNW,338,0.0,0.9,73,0.00,,---,0.00,VWS V14.01,2013-06-16 03:59:00,
2013-06-15 21:04:00,54.1,45.7,30.06,WNW,292,0.0,3.1,73,0.00,,---,0.00,VWS V14.01,2013-06-16 04:04:00,
2013-06-15 21:09:00,54.0,45.5,30.03,West,270,2.7,3.6,73,0.00,,---,0.00,VWS V14.01,2013-06-16 04:09:00,
2013-06-15 21:14:00,54.0,45.5,30.03,WSW,248,2.0,2.9,73,0.00,,---,0.00,VWS V14.01,2013-06-16 04:14:00,
2013-06-15 21:19:00,53.8,45.7,30.03,WSW,248,0.0,2.9,74,0.00,,---,0.00,VWS V14.01,2013-06-16 04:19:00,
2013-06-15 21:24:00,53.8,45.7,30.03,NNW,338,0.0,2.2,74,0.00,,---,0.00,VWS V14.01,2013-06-16 04:24:00,
2013-06-15 21:29:00,53.8,45.7,30.03,WSW,248,1.1,1.6,74,0.00,,---,0.00,VWS V14.01,2013-06-16 04:29:00,
2013-06-15 21:34:00,53.6,45.2,30.03,WSW,248,0.9,3.1,73,0.00,,---,0.00,VWS V14.01,2013-06-16 04:34:00,
2013-06-15 21:44:00,53.6,45.5,30.06,WSW,248,0.0,2.5,74,0.00,,---,0.00,VWS V14.01,2013-06-16 04:44:00,
2013-06-15 21:54:00,53.6,45.5,30.06,SSW,202,1.6,2.0,74,0.00,,---,0.00,VWS V14.01,2013-06-16 04:54:00,
2013-06-15 21:59:00,53.6,45.5,30.06,WNW,292,0.0,2.7,74,0.00,,---,0.00,VWS V14.01,2013-06-16 04:59:00,
2013-06-15 22:04:00,53.6,45.5,30.06,West,270,0.0,0.0,74,0.00,,---,0.00,VWS V14.01,2013-06-16 05:04:00,
2013-06-15 22:09:00,53.4,45.3,30.06,NW,315,0.0,2.7,74,0.00,,---,0.00,VWS V14.01,2013-06-16 05:09:00,
2013-06-15 22:14:00,53.4,45.3,30.06,WSW,248,0.0,1.6,74,0.00,,---,0.00,VWS V14.01,2013-06-16 05:14:00,
2013-06-15 22:19:00,53.4,45.7,30.06,WSW,248,2.5,2.5,75,0.00,,---,0.00,VWS V14.01,2013-06-16 05:19:00,
2013-06-15 22:24:00,53.4,45.7,30.09,WSW,248,0.0,3.4,75,0.00,,---,0.00,VWS V14.01,2013-06-16 05:24:00,
2013-06-15 22:29:00,53.4,45.7,30.09,WSW,248,2.7,2.7,75,0.00,,---,0.00,VWS V14.01,2013-06-16 05:29:00,
2013-06-15 22:34:00,53.4,45.7,30.09,WSW,248,0.0,2.7,75,0.00,,---,0.00,VWS V14.01,2013-06-16 05:34:00,
2013-06-15 22:39:00,53.4,45.7,30.09,West,270,1.3,2.5,75,0.00,,---,0.00,VWS V14.01,2013-06-16 05:39:00,
2013-06-15 22:44:00,53.6,45.9,30.09,SSW,202,2.2,2.2,75,0.00,,---,0.00,VWS V14.01,2013-06-16 05:44:00,
2013-06-15 22:54:00,53.8,46.4,30.09,West,270,0.0,2.2,76,0.00,,---,0.00,VWS V14.01,2013-06-16 05:54:00,
2013-06-15 22:59:00,53.8,46.0,30.09,NNW,338,1.1,1.3,75,0.00,,---,0.00,VWS V14.01,2013-06-16 05:59:00,
2013-06-15 23:04:00,53.6,45.9,30.09,WSW,248,0.0,2.9,75,0.00,,---,0.00,VWS V14.01,2013-06-16 06:04:00,
2013-06-15 23:09:00,53.6,45.9,30.09,WSW,248,0.0,2.5,75,0.00,,---,0.00,VWS V14.01,2013-06-16 06:09:00,
2013-06-15 23:14:00,53.6,46.2,30.09,West,270,0.0,2.7,76,0.00,,---,0.00,VWS V14.01,2013-06-16 06:14:00,
2013-06-15 23:19:00,53.6,46.2,30.09,WSW,248,0.9,2.2,76,0.00,,---,0.00,VWS V14.01,2013-06-16 06:19:00,
2013-06-15 23:24:00,53.6,46.2,30.09,WSW,248,3.1,3.1,76,0.00,,---,0.00,VWS V14.01,2013-06-16 06:24:00,
2013-06-15 23:29:00,53.6,46.6,30.09,West,270,0.0,3.6,77,0.00,,---,0.00,VWS V14.01,2013-06-16 06:29:00,
2013-06-15 23:34:00,53.4,46.1,30.09,SW,225,2.2,2.7,76,0.00,,---,0.00,VWS V14.01,2013-06-16 06:34:00,
2013-06-15 23:39:00,53.4,46.4,30.09,West,270,0.0,2.2,77,0.00,,---,0.00,VWS V14.01,2013-06-16 06:39:00,
2013-06-15 23:44:00,53.4,46.4,30.09,WSW,248,0.0,2.2,77,0.00,,---,0.00,VWS V14.01,2013-06-16 06:44:00,
2013-06-15 23:54:00,53.4,46.4,30.09,WSW,248,0.9,3.1,77,0.00,,---,0.00,VWS V14.01,2013-06-16 06:54:00,
2013-06-15 23:59:00,53.4,46.4,30.09,WSW,248,0.0,0.9,77,0.00,,---,0.00,VWS V14.01,2013-06-16 06:59:00,